Theta_e
313 313 313 313 313 312 311 312 313 314 314 316 315 313 311 310 309 308 308 308 308 308 308 308 308 308 308 308 308 309 309 309 310 310 311 313 313 312 312 311 314 320 320 319 320 320 319 319 324 329 334 335 336 339 340 343 346 349 350 351 354 357 358 356 358 356 355 356 350 347 348 349 350 347 346 346 345 345 345 345 345 345 344 345 344 343 344 343
313 313 313 313 313 313 312 312 313 314 315 316 316 315 314 313 311 310 309 309 308 308 308 308 308 308 308 308 308 308 309 310 309 311 314 316 314 312 313 312 314 321 320 319 320 319 320 322 326 332 337 337 338 340 342 345 347 350 351 351 355 359 355 351 354 353 353 354 349 348 348 347 349 346 346 347 346 345 346 346 346 346 346 346 345 345 346 345
313 313 313 313 313 313 312 312 313 314 315 317 316 316 315 315 315 314 313 312 311 310 309 309 309 308 309 308 308 309 309 310 311 316 319 319 316 313 313 313 314 320 320 319 319 319 321 325 332 338 339 338 339 340 343 348 350 350 350 354 357 355 351 349 350 350 351 351 348 349 348 347 347 345 346 346 345 345 346 347 347 348 348 347 347 347 348 347
312 313 313 313 313 314 313 312 312 314 315 316 317 316 316 315 316 315 315 315 315 314 313 313 312 311 311 309 309 309 309 314 317 320 321 318 316 313 313 313 314 320 320 317 319 319 318 325 336 340 339 338 335 338 344 350 352 349 350 356 356 351 350 350 349 349 349 348 349 348 348 348 346 345 345 344 346 346 345 346 346 348 348 347 348 348 348 348
311 312 313 313 313 313 314 312 312 313 315 316 317 316 316 315 315 315 315 315 315 315 315 314 314 314 313 310 309 308 312 323 324 321 322 319 316 313 313 313 313 319 319 315 317 318 318 323 331 333 335 335 334 342 348 349 351 351 351 352 352 351 352 351 348 349 350 348 348 348 350 350 346 345 345 344 348 347 345 346 344 344 346 346 347 348 348 348
310 311 312 313 313 313 314 313 312 312 315 316 316 316 316 315 315 315 315 315 315 314 314 314 314 314 313 311 310 309 311 323 325 321 324 323 318 313 313 314 312 317 319 315 316 318 319 322 325 328 330 327 332 346 351 349 351 353 353 350 350 353 353 351 348 349 350 349 348 348 349 348 345 346 345 344 345 344 344 346 344 343 345 345 346 347 348 348
308 310 312 312 313 313 313 314 312 311 313 315 316 315 315 315 315 315 315 316 315 315 315 314 314 314 314 312 312 310 310 319 322 321 324 324 320 314 313 314 312 315 317 315 315 318 322 323 325 328 328 326 330 340 345 350 352 352 355 353 350 352 353 352 350 349 350 349 348 349 348 347 347 348 346 344 344 343 345 345 345 346 346 346 347 347 347 348
307 308 310 312 313 313 313 314 313 312 311 313 315 315 315 315 315 315 316 317 317 317 316 315 314 314 314 313 312 311 314 322 324 324 326 325 322 318 315 313 313 314 315 315 314 318 323 325 327 329 328 328 329 334 343 352 353 351 355 355 352 353 354 353 351 349 350 349 348 349 349 347 348 347 346 345 344 343 345 345 346 347 347 347 347 347 347 347
307 307 308 311 312 313 313 313 313 312 311 311 313 314 314 315 315 316 316 317 317 317 317 317 316 315 315 314 313 313 320 326 326 327 326 325 324 322 319 315 314 314 314 314 313 317 323 326 329 331 329 327 328 336 347 354 355 353 354 355 352 353 355 353 351 350 351 350 349 350 349 348 347 346 346 345 345 344 345 346 347 348 348 347 347 347 346 346
307 307 307 309 311 313 313 313 313 313 311 310 312 313 314 315 315 315 316 316 317 316 316 317 317 317 316 316 314 314 323 327 326 328 325 324 324 322 321 318 316 315 313 313 313 315 321 327 330 330 330 326 326 337 348 353 355 353 351 351 349 351 354 353 351 350 351 350 350 351 351 347 345 348 349 345 344 345 345 346 347 348 348 348 347 346 346 345
308 307 307 308 310 312 313 313 314 313 311 310 311 312 313 314 315 315 316 316 316 316 318 318 318 318 317 318 315 315 324 325 324 327 324 324 325 323 321 319 319 316 313 312 313 313 318 326 328 327 328 326 332 345 351 352 353 351 350 350 347 348 352 352 352 351 350 351 349 349 351 347 345 352 352 344 343 345 345 347 348 348 348 348 347 345 345 345
311 308 307 307 308 311 312 313 313 312 312 311 311 312 313 315 315 316 316 316 317 319 321 320 320 320 319 319 316 316 325 324 322 324 321 323 326 323 321 319 319 318 316 312 312 313 316 323 325 325 325 327 343 354 353 353 352 350 351 352 348 346 349 351 351 350 350 351 347 346 350 349 351 355 349 343 344 345 345 347 348 348 348 348 347 345 345 344
313 309 307 307 308 309 312 313 313 312 312 312 312 313 314 315 315 316 316 317 320 323 323 322 321 320 320 319 314 316 326 324 321 321 319 323 325 322 321 320 317 317 318 315 312 312 314 322 325 325 324 323 340 352 352 351 351 352 352 352 351 349 352 351 348 349 350 350 347 348 351 352 354 351 345 344 345 344 345 347 347 347 347 347 347 345 344 345
314 310 307 307 307 308 311 313 313 312 312 313 313 314 315 315 315 316 317 320 323 324 324 322 322 321 321 320 314 316 323 321 319 320 319 322 322 319 320 319 316 314 315 313 313 312 313 320 322 323 323 322 337 351 352 350 351 353 352 352 353 353 353 349 347 350 352 350 349 351 352 352 351 348 344 345 345 344 345 345 346 346 346 346 346 345 344 345
313 311 308 307 307 308 311 313 313 312 312 313 313 314 315 315 316 317 319 322 323 324 323 323 323 322 322 321 317 316 319 319 319 320 319 320 319 318 320 320 316 313 313 312 311 312 313 317 318 319 324 330 341 352 354 354 354 352 350 352 353 353 352 348 347 351 352 350 348 350 352 352 350 346 344 345 345 344 344 344 345 345 345 345 345 345 345 345
311 310 308 307 308 308 310 312 313 312 312 313 314 315 316 317 319 320 322 323 323 322 322 323 325 323 322 321 320 320 320 321 321 321 320 319 318 318 320 320 317 314 314 313 311 312 315 318 318 317 328 344 350 353 357 356 356 354 351 352 352 352 353 350 349 349 351 351 350 351 354 354 350 345 344 345 344 344 344 343 344 344 345 345 345 345 345 345
310 309 308 307 308 309 311 312 312 313 313 314 315 317 318 319 320 321 323 323 323 322 322 324 325 322 322 321 321 322 322 322 322 321 320 319 319 318 319 320 318 315 315 315 313 313 315 317 319 318 331 348 351 352 355 352 353 355 352 351 351 353 353 352 351 348 349 353 353 351 353 354 349 344 343 344 345 344 344 344 343 344 344 344 345 345 345 344
309 308 308 307 308 309 311 312 313 314 314 316 318 320 320 320 321 321 322 323 322 322 322 324 324 322 321 321 321 322 322 322 322 321 320 319 318 318 319 319 320 318 315 315 315 315 317 317 320 325 335 347 351 352 352 350 352 354 353 353 355 354 352 352 354 351 349 354 355 352 353 352 346 344 344 344 344 344 344 344 344 344 344 344 344 344 344 344
308 308 308 307 308 310 312 313 314 315 315 318 320 320 320 320 321 321 322 322 322 323 323 323 323 323 322 321 321 322 321 322 322 321 321 320 320 320 319 319 319 319 316 317 317 316 318 319 321 328 337 347 353 351 349 351 354 354 353 356 357 355 353 353 353 351 351 355 355 353 354 351 346 344 344 343 344 344 344 344 344 344 344 344 344 344 344 344
308 308 307 308 309 311 313 314 315 316 317 319 320 320 321 320 321 323 321 321 322 322 323 322 322 322 322 321 321 321 321 321 321 322 321 320 321 321 319 318 319 319 318 321 321 318 319 323 324 327 333 343 352 351 346 347 354 356 354 355 354 353 355 355 353 350 350 355 355 352 352 349 345 345 343 344 344 343 343 343 343 343 344 344 344 344 344 344
307 307 308 308 309 311 313 314 315 317 319 320 320 320 320 319 321 322 320 321 323 322 322 323 322 322 321 321 321 321 321 321 320 321 321 320 321 321 319 319 319 321 320 319 321 321 322 325 326 327 329 333 343 348 343 342 351 356 355 354 353 353 354 354 353 350 349 353 353 351 351 347 345 344 343 345 346 344 342 342 343 343 343 344 343 343 344 344
307 308 308 308 310 312 314 314 316 318 320 320 320 320 320 320 322 321 319 320 322 322 323 322 323 323 321 320 321 321 322 322 320 320 321 321 320 321 320 320 322 323 321 319 321 324 324 325 326 325 323 322 328 332 331 334 343 353 355 354 353 354 353 351 352 349 348 352 351 349 350 350 350 347 345 346 348 347 343 342 343 343 343 342 343 343 343 343
308 308 308 308 310 313 314 315 317 319 320 319 320 320 319 321 323 322 320 320 322 323 323 323 324 323 322 321 321 321 323 323 321 320 321 320 320 321 319 320 323 322 320 321 324 324 324 326 324 321 320 321 323 322 323 331 341 352 356 354 354 353 352 353 352 347 347 350 350 350 350 351 353 350 346 346 346 347 346 343 342 342 343 343 343 343 343 342
309 308 308 309 310 313 315 316 318 320 319 319 321 320 318 320 322 322 321 320 322 324 323 323 324 323 324 323 321 322 322 322 321 320 320 320 320 320 319 320 321 321 321 323 324 323 324 324 320 320 322 324 324 322 324 335 345 353 354 354 357 355 352 353 351 346 348 350 348 349 350 350 351 349 347 345 344 346 347 345 342 341 342 343 342 342 342 342
311 308 309 309 310 313 315 317 319 320 319 320 321 320 318 318 320 322 322 324 327 327 323 321 322 322 322 323 322 321 320 320 320 321 321 320 321 319 319 319 319 320 321 321 322 322 323 321 318 321 324 323 324 324 324 329 340 349 352 352 355 354 351 352 350 348 350 350 349 350 349 349 350 350 348 347 347 348 347 345 342 341 341 340 340 340 341 342
313 309 309 309 310 313 315 317 319 319 319 320 320 320 318 317 321 322 324 331 331 326 321 320 321 321 320 321 321 320 321 323 321 321 321 321 321 319 319 318 317 320 321 320 321 322 322 320 320 323 324 324 324 324 325 327 335 344 349 351 354 353 352 351 349 350 351 350 350 351 349 349 350 350 349 348 350 351 349 346 341 339 340 339 339 339 339 340
314 309 308 310 310 312 315 316 317 319 319 319 320 320 316 317 321 321 325 331 326 319 318 319 320 320 319 319 319 320 324 325 323 322 321 321 321 319 320 320 319 319 319 317 319 320 320 319 321 323 322 323 323 322 325 330 337 344 347 351 354 353 351 350 349 350 351 350 350 350 350 349 348 349 349 348 349 350 351 350 344 338 339 339 339 339 339 339
316 309 309 310 310 312 314 315 317 319 319 320 320 318 317 320 322 323 327 325 318 316 317 318 319 319 319 320 318 320 323 324 325 323 321 321 321 320 321 321 322 323 320 318 320 320 318 319 322 322 321 321 322 324 324 331 344 346 346 347 349 350 350 349 350 349 348 349 349 350 351 349 349 351 351 349 349 349 350 352 347 339 337 339 339 339 339 339
315 310 309 310 310 312 313 315 318 319 320 321 318 317 319 321 322 326 329 322 317 319 318 317 320 319 319 319 318 319 320 322 324 323 322 322 321 321 321 320 321 323 320 319 323 323 320 321 321 320 323 321 321 323 320 332 351 346 341 342 341 343 346 347 350 349 347 348 349 350 350 348 349 351 351 350 350 349 349 350 347 340 337 339 339 339 339 339
314 310 310 310 311 311 313 316 318 319 320 318 317 319 320 323 330 331 325 320 319 320 318 318 319 319 318 320 319 319 319 322 323 322 321 321 321 321 320 320 320 322 324 321 323 323 319 319 321 320 321 320 324 328 323 333 348 343 341 342 340 343 346 348 351 349 347 348 349 349 348 347 349 351 351 349 349 349 348 348 347 342 338 338 339 339 339 339
313 310 310 311 311 312 314 317 318 320 319 317 319 321 320 327 339 334 321 318 320 319 318 318 320 320 319 320 321 320 321 322 323 322 322 321 322 321 319 321 321 324 330 327 322 322 320 319 322 321 321 328 341 345 337 338 344 344 346 345 345 348 349 349 350 349 349 349 349 349 348 347 348 351 352 350 348 347 346 348 348 345 340 338 339 339 339 339
312 310 311 311 311 313 315 316 319 320 317 319 320 321 326 329 329 328 323 320 319 318 318 318 319 321 320 320 323 323 322 323 322 323 324 321 321 322 321 323 324 322 326 328 322 322 324 322 320 320 324 336 351 352 345 344 345 346 347 345 348 350 347 348 348 347 348 348 348 349 350 348 348 353 356 351 347 346 346 347 347 345 342 339 338 339 339 339
311 311 312 311 311 313 315 317 319 317 318 323 319 323 338 333 321 325 330 323 318 317 318 317 318 321 321 321 324 324 323 324 324 322 322 320 320 322 322 323 323 319 321 324 320 321 326 324 325 330 335 338 347 351 348 348 348 347 345 343 348 349 347 348 347 345 346 347 348 349 350 350 349 355 358 351 346 345 345 346 346 345 343 340 339 339 339 339
310 312 311 311 312 313 316 318 317 319 321 321 320 325 333 327 322 328 331 327 323 320 317 316 319 321 320 322 325 324 323 323 324 325 325 324 323 325 325 322 319 320 322 320 319 321 322 321 328 340 345 342 342 347 348 349 348 347 345 343 344 347 349 349 348 348 348 347 348 348 348 350 351 356 356 350 345 344 345 346 345 345 345 342 340 339 339 339
311 313 311 312 314 314 318 318 318 322 320 320 331 335 326 322 326 328 330 329 325 321 319 318 321 323 322 325 327 323 322 322 324 328 329 326 324 325 326 322 320 322 322 319 322 324 319 321 328 332 340 344 342 342 344 347 348 345 342 342 343 346 350 347 344 347 348 347 349 348 348 352 355 357 355 351 347 345 345 346 347 347 346 344 342 339 338 339
312 313 312 313 315 316 319 319 320 323 320 326 338 334 326 327 326 325 328 326 321 321 323 321 322 322 320 324 328 323 320 322 324 327 328 326 324 324 325 325 321 321 321 321 327 325 318 325 328 322 332 344 343 344 344 344 348 345 340 341 341 343 351 350 344 347 347 345 346 346 350 355 353 353 356 353 349 347 346 346 347 347 346 345 343 340 339 339
313 313 312 314 315 317 318 319 321 321 320 331 337 329 330 330 322 325 331 325 321 322 321 319 319 319 318 321 325 323 321 322 324 327 326 325 324 323 325 326 321 321 323 322 323 322 319 324 327 323 331 340 340 342 344 341 344 346 343 343 342 341 347 352 350 350 347 345 347 347 350 352 348 349 355 354 352 349 347 346 347 347 347 345 345 343 340 339
313 313 313 315 316 317 318 319 320 319 322 335 340 333 333 329 320 323 326 321 320 320 320 320 318 318 320 320 320 322 322 321 326 333 332 325 323 323 324 326 322 321 321 320 322 324 322 323 327 325 327 335 341 343 346 344 339 340 342 343 344 342 340 342 344 348 347 347 348 346 348 350 347 348 354 354 353 351 348 347 348 348 347 345 345 345 342 340
314 315 315 318 317 316 318 318 319 321 324 332 339 333 327 325 323 322 321 321 319 317 320 320 318 319 320 321 321 320 321 321 326 334 331 324 322 323 323 323 322 320 319 320 324 326 324 322 325 326 324 331 343 345 346 348 340 334 337 339 341 342 341 342 343 343 343 345 346 343 344 349 348 349 355 354 352 351 349 348 347 347 347 346 345 345 343 341
315 317 318 320 320 318 318 318 320 325 327 326 332 331 323 321 323 320 320 321 317 317 320 319 320 321 320 322 321 319 322 326 327 328 327 325 324 323 323 322 322 320 318 320 323 327 330 325 322 327 327 333 344 344 340 346 343 334 337 340 336 335 338 342 341 340 342 346 347 341 340 345 346 349 354 353 350 350 349 348 347 346 346 346 345 345 345 343
317 321 320 319 320 320 320 321 322 325 329 327 326 327 322 321 323 322 321 321 318 317 318 319 322 322 321 322 320 319 323 326 326 325 326 327 324 321 322 321 320 319 321 324 325 326 330 329 325 327 327 331 340 335 327 335 339 334 339 344 338 334 337 338 338 339 340 343 344 340 337 341 345 348 351 351 350 349 348 347 347 345 346 346 346 345 345 344
316 320 321 319 321 322 321 325 324 320 324 327 324 322 321 322 324 322 319 319 318 316 317 321 322 321 322 321 319 322 326 325 324 325 326 326 325 323 321 320 318 318 322 326 324 324 329 331 329 327 327 327 328 325 321 324 328 328 334 342 339 336 338 338 339 341 337 336 341 340 336 340 345 347 350 351 349 348 348 347 347 346 346 345 345 345 345 345
315 317 320 319 322 322 321 327 329 326 326 324 321 320 320 320 322 322 319 317 316 316 318 320 320 320 321 320 320 322 323 322 322 323 325 326 327 324 320 319 319 318 321 324 322 326 332 332 329 331 337 334 328 326 327 328 329 326 327 331 331 330 334 338 344 345 338 338 343 340 335 341 348 348 349 350 349 349 349 347 347 347 347 346 345 345 345 345
317 318 321 321 323 322 323 327 329 332 333 324 319 322 322 320 320 319 318 317 316 317 320 321 319 319 319 319 322 323 320 320 320 321 324 325 326 323 319 321 326 323 322 324 324 325 328 332 335 335 336 335 330 329 332 334 333 328 328 332 332 332 331 332 337 338 334 338 344 338 335 342 348 348 349 350 349 350 349 347 347 347 347 347 345 344 344 344
318 318 320 322 323 321 322 324 323 327 331 325 324 327 324 321 321 318 317 317 315 315 318 319 317 318 320 320 323 324 322 320 321 321 323 323 324 324 320 321 330 332 329 326 325 328 330 335 341 336 329 327 328 327 326 327 330 335 339 340 342 341 332 327 332 333 330 338 344 341 341 347 350 348 350 351 350 351 350 348 347 346 347 347 345 344 344 343
321 321 325 328 326 321 322 323 323 327 329 329 332 331 324 322 320 316 316 315 314 315 316 317 317 319 322 323 325 327 325 324 324 326 326 325 325 323 321 322 327 330 330 325 323 333 338 335 341 342 332 327 328 329 328 331 338 345 346 343 345 345 335 327 331 332 335 344 345 343 347 353 354 351 351 351 350 351 351 348 347 347 347 347 346 345 344 344
325 326 331 334 329 324 326 326 326 331 330 328 331 329 323 322 320 316 316 315 315 317 317 316 318 319 321 324 325 326 328 328 326 326 326 326 328 325 319 320 324 324 326 323 321 336 345 334 334 341 334 329 333 333 333 338 342 344 345 345 347 347 342 336 332 331 336 338 337 342 349 353 354 353 352 351 350 350 350 348 348 348 349 348 347 346 346 345
327 328 328 329 330 330 330 328 328 331 330 327 329 327 322 321 320 318 317 316 314 317 319 319 320 320 321 325 326 325 329 329 324 326 327 324 327 327 320 320 322 321 324 323 322 336 349 336 328 333 332 331 335 333 332 337 339 341 344 345 347 347 347 349 344 341 340 335 336 347 353 353 353 353 351 349 349 349 349 349 348 348 348 348 348 348 347 347
324 327 326 326 329 329 328 328 329 331 331 330 332 329 321 320 322 319 316 317 317 317 319 320 321 319 321 332 335 329 329 327 319 321 326 322 321 325 324 322 320 319 322 323 321 329 342 339 331 332 334 333 335 335 334 335 335 339 341 342 345 347 346 348 348 347 347 345 346 351 352 352 350 348 347 346 346 347 348 349 349 348 348 347 347 348 348 348
319 322 324 325 327 328 327 329 330 331 331 328 329 328 322 320 322 319 316 318 319 317 318 320 321 319 320 333 337 326 327 330 322 318 323 322 320 322 324 322 321 320 322 324 323 324 330 333 333 335 336 336 336 334 333 334 335 338 339 339 342 345 346 348 347 347 349 350 350 350 351 352 348 344 345 345 345 346 347 348 348 348 349 348 347 348 348 347
318 320 322 326 331 331 330 331 328 329 331 328 328 331 327 323 323 320 317 318 317 317 319 320 320 320 320 325 325 318 321 327 323 317 320 320 317 319 321 320 320 321 323 324 323 326 331 331 332 336 336 335 336 335 332 331 332 336 339 338 340 343 345 347 347 346 347 349 349 350 352 352 348 345 345 344 344 345 346 346 347 347 348 349 348 348 348 348
317 321 323 326 331 330 329 332 330 326 328 329 329 331 328 325 323 318 317 319 316 315 318 318 317 320 321 321 320 317 317 319 319 316 317 317 316 316 317 317 317 320 326 328 325 329 336 332 330 335 332 329 334 337 333 331 333 338 339 337 338 342 343 344 345 344 344 346 349 350 350 349 347 345 346 346 345 345 345 345 345 346 346 347 348 348 348 348
Wind_Speed
10 10 11 12 13 13 12 11 12 12 12 12 12 12 11 10 8 7 6 6 6 6 6 7 7 8 8 9 9 10 11 11 12 14 12 6 7 11 12 14 15 16 18 19 19 18 16 15 15 13 12 10 8 8 9 7 5 1 1 1 1 2 2 1 3 3 3 3 4 4 5 10 8 7 12 12 13 15 11 11 12 6 12 16 15 24 24 20
9 10 11 12 13 13 11 10 10 11 12 12 12 12 13 13 12 10 9 8 8 7 7 7 8 8 10 10 10 11 11 11 12 13 8 4 7 11 13 16 18 17 17 18 18 18 17 17 17 15 13 10 7 7 7 6 6 4 2 1 2 2 2 3 2 4 2 5 7 5 6 11 9 9 14 11 9 14 12 11 15 16 17 16 20 25 21 21
9 9 10 11 12 13 12 10 9 10 11 11 11 12 12 13 13 13 12 11 10 10 9 9 9 10 10 11 11 11 11 11 10 6 2 3 6 9 13 17 19 18 15 14 14 15 15 16 17 16 14 8 6 6 6 5 5 5 2 0 3 2 1 3 4 4 3 9 11 5 7 9 9 11 12 10 10 11 10 11 16 20 22 23 25 24 21 21
9 9 10 11 11 12 12 10 8 9 11 11 10 11 11 11 12 12 12 12 12 12 11 11 11 11 12 11 10 10 10 8 3 1 3 3 2 8 13 17 20 19 15 12 12 13 13 15 16 15 13 6 4 5 4 6 5 4 3 2 3 2 1 3 5 3 3 12 12 7 8 7 9 10 14 17 11 4 9 18 19 22 28 29 27 24 23 21
9 9 9 10 11 11 11 10 8 7 9 10 10 10 10 11 11 11 11 11 11 12 12 12 12 13 13 12 11 9 7 4 3 5 6 6 1 5 10 16 20 19 16 13 13 14 14 16 17 13 10 4 2 3 3 9 8 3 3 2 2 2 1 4 7 5 5 10 10 8 7 7 10 9 16 20 8 3 12 20 22 25 31 31 29 27 24 21
10 10 10 10 10 10 11 10 8 6 7 8 9 9 10 10 11 11 11 11 11 12 12 13 13 14 14 13 11 7 4 1 2 2 4 6 4 3 9 15 18 18 18 14 14 16 16 17 17 12 7 2 3 4 3 10 11 3 1 1 2 1 2 5 9 7 5 8 8 6 6 8 10 7 13 15 5 4 13 19 22 25 30 31 29 27 24 22
11 10 10 10 10 10 11 11 9 7 6 6 7 8 9 10 10 11 11 12 12 12 13 13 13 14 14 14 12 7 5 1 1 0 2 4 4 2 6 12 15 17 17 15 15 18 18 17 17 13 7 1 3 6 6 8 12 5 1 3 3 2 2 6 10 9 6 7 7 6 6 6 7 6 8 10 5 6 12 19 22 26 30 29 28 27 25 22
11 10 10 10 10 10 10 10 10 8 6 6 6 7 8 9 10 11 11 12 12 13 14 14 13 14 14 13 13 8 4 0 3 2 3 3 4 3 2 8 11 14 15 16 16 18 18 17 17 13 6 3 4 4 5 5 7 6 2 4 5 2 4 6 9 10 7 8 9 7 5 4 6 5 5 9 8 9 14 20 23 28 29 28 28 26 24 22
10 9 9 9 9 9 9 9 9 8 7 6 6 7 7 9 10 10 11 12 13 14 14 14 14 14 14 13 13 7 1 3 3 3 4 3 3 4 2 4 8 12 14 15 16 17 17 16 17 13 4 4 4 3 7 6 3 7 5 5 5 3 4 8 8 9 8 8 9 6 4 3 5 3 3 9 11 13 18 22 26 29 29 28 27 25 24 21
10 9 8 8 8 9 9 9 8 8 7 6 7 7 7 8 9 10 12 13 14 16 16 15 14 14 14 12 11 4 4 3 2 3 3 2 2 2 2 1 5 9 13 15 16 17 18 16 15 12 6 3 5 6 8 6 3 8 10 8 6 4 3 9 9 9 9 7 8 6 3 3 4 2 2 9 16 19 22 24 27 30 30 29 27 25 23 20
10 9 8 8 8 8 8 8 8 8 7 7 7 7 8 9 10 11 13 15 17 18 16 15 14 13 13 13 9 2 6 4 3 4 2 1 1 2 3 3 4 6 10 15 17 17 17 14 11 8 5 5 6 3 5 5 6 12 13 9 6 6 3 8 10 12 9 4 7 7 4 2 2 1 2 14 23 23 25 27 28 29 29 28 27 25 23 20
11 10 9 8 8 8 8 8 8 7 7 7 7 7 8 9 11 13 15 17 18 17 15 13 13 13 13 13 8 5 8 4 3 4 2 2 1 0 3 4 4 4 6 10 15 17 15 13 11 7 1 5 4 1 3 6 9 10 8 5 4 5 1 5 7 10 5 3 9 10 4 1 2 2 4 20 28 26 28 30 29 29 28 27 27 25 23 21
12 10 9 8 8 8 8 8 8 7 7 8 8 9 9 11 13 15 16 17 16 15 13 12 12 12 12 9 2 7 11 7 5 5 3 3 4 2 1 2 3 4 3 5 9 13 15 14 12 8 3 7 2 1 3 5 7 5 2 3 4 1 2 4 5 8 4 3 10 9 1 3 5 5 6 23 29 27 28 29 28 27 27 27 26 26 24 21
12 11 10 9 8 8 7 7 7 7 7 8 9 10 11 13 14 16 16 15 14 12 11 11 11 11 10 3 4 8 11 8 6 6 5 5 4 3 2 1 2 3 2 3 4 6 12 14 11 8 7 8 1 5 3 3 3 2 1 1 2 1 2 3 4 8 4 4 9 6 1 3 6 7 9 24 29 28 27 26 27 26 26 26 26 26 24 23
12 12 11 10 9 8 7 7 7 7 8 8 9 11 12 15 16 16 14 11 11 11 11 10 8 11 9 1 4 5 7 7 7 7 8 8 6 4 2 1 1 3 4 5 6 5 6 9 10 7 6 5 6 6 2 2 3 1 1 1 1 1 2 1 3 4 2 4 5 3 1 2 3 6 15 26 28 28 26 25 26 25 26 26 26 27 25 24
11 12 11 10 9 8 7 7 7 7 7 8 10 12 14 16 15 14 11 8 10 11 10 8 7 10 6 2 3 1 1 4 6 6 8 9 8 4 1 1 1 4 6 7 8 8 7 6 6 6 4 2 5 4 3 2 2 2 0 1 1 1 1 2 3 2 1 4 3 2 2 1 1 7 19 26 27 27 25 24 25 25 26 26 26 27 26 24
10 11 11 11 9 8 7 7 7 6 7 8 10 12 14 14 14 13 9 6 11 12 8 6 8 8 2 2 2 2 5 7 5 4 6 7 8 5 2 2 2 4 5 7 8 8 8 6 3 4 2 2 2 3 3 1 2 2 1 0 2 1 2 3 2 2 1 2 2 3 1 1 1 9 19 24 27 25 22 23 24 24 25 26 26 26 26 25
10 10 10 10 9 8 7 6 6 6 7 8 10 13 13 13 14 11 7 8 12 10 5 4 7 5 0 0 3 4 6 7 4 2 3 3 5 6 4 2 0 3 4 5 5 7 7 3 1 0 1 2 2 3 3 3 3 3 2 1 1 1 2 3 2 4 4 2 2 4 1 2 3 9 15 21 25 23 21 23 23 23 25 25 26 26 26 26
10 10 10 9 8 7 6 6 6 6 7 8 12 13 11 14 12 4 6 12 10 4 2 4 5 2 2 4 5 4 5 6 4 1 4 4 4 5 5 3 1 2 3 3 3 5 6 2 2 1 1 2 5 6 6 4 5 4 3 2 2 2 2 3 2 5 7 4 2 3 2 4 7 8 11 18 23 21 20 20 20 22 23 24 25 25 26 26
10 9 9 8 7 6 5 5 5 5 7 9 13 12 10 14 9 3 14 16 7 5 6 7 8 7 8 7 4 4 5 5 4 2 4 4 5 4 3 3 2 2 2 3 2 4 6 3 1 4 5 6 8 9 5 1 4 5 3 2 1 2 1 3 4 4 6 4 2 0 1 6 10 9 10 16 19 17 17 17 18 21 22 23 24 25 26 27
10 9 8 7 6 5 4 4 4 4 6 9 13 12 9 11 6 6 16 13 8 11 10 7 7 10 10 7 5 6 7 4 2 2 4 6 6 3 3 3 3 2 2 2 3 2 5 4 5 6 7 8 8 7 4 2 3 4 3 3 1 1 1 2 4 3 2 2 2 2 2 5 7 8 10 14 13 12 16 18 19 22 23 24 24 25 27 27
10 8 7 6 4 4 4 4 4 4 6 8 10 12 12 11 7 7 9 9 13 13 8 7 7 7 7 6 7 8 7 4 2 2 6 8 8 5 3 3 3 1 2 1 3 3 1 3 6 7 5 3 4 3 3 3 1 1 2 3 1 1 2 2 4 4 2 1 2 2 3 3 1 2 6 8 6 6 13 19 23 24 24 24 26 26 27 26
10 8 6 5 4 4 4 3 3 3 6 6 8 11 13 13 11 8 5 7 12 9 5 6 6 6 5 5 7 7 5 3 2 4 9 10 8 6 5 5 3 2 1 2 4 2 1 4 5 5 4 2 2 3 2 4 3 1 2 2 2 3 3 1 3 5 1 2 4 4 3 1 2 1 3 4 2 1 5 15 23 26 26 28 29 28 28 27
11 8 6 4 3 5 4 4 4 3 6 5 6 10 12 13 13 9 4 5 6 5 4 5 5 6 6 4 4 4 4 5 5 5 9 11 9 5 4 5 4 1 1 2 6 4 4 6 3 4 5 4 2 2 2 4 3 2 3 4 2 4 3 2 4 5 2 3 7 7 3 2 2 3 5 7 6 5 5 9 19 25 27 28 28 28 29 28
12 9 6 4 3 5 5 4 4 4 6 4 5 9 12 14 13 9 4 1 3 5 4 4 5 5 4 3 4 4 4 5 6 5 9 12 10 6 2 4 4 1 4 3 5 2 5 7 4 3 2 3 2 2 4 5 2 3 4 7 4 4 5 6 8 6 2 2 7 8 4 2 4 6 8 6 4 5 6 7 17 25 26 25 24 26 29 29
12 9 7 4 4 6 5 4 5 6 6 3 5 10 12 14 13 7 3 3 2 5 4 2 2 2 3 3 5 4 2 3 4 5 8 10 10 6 2 2 2 2 4 3 2 2 3 4 5 5 4 4 2 4 4 5 2 3 4 6 6 6 7 8 8 4 1 2 4 4 3 2 4 7 10 8 6 6 6 6 15 23 24 24 25 26 28 30
13 10 7 5 4 6 6 5 6 7 6 4 7 10 13 15 10 5 3 4 2 4 2 2 1 1 3 4 4 5 1 2 2 3 9 11 10 8 4 1 1 2 3 4 1 2 1 1 1 3 4 4 3 5 4 6 5 3 4 4 8 8 7 8 6 2 1 2 1 2 1 2 3 8 10 10 8 8 7 6 10 20 25 26 26 26 28 31
14 10 6 5 5 7 7 7 7 7 5 5 9 11 14 13 6 1 3 4 2 3 2 2 2 3 4 3 5 5 2 3 1 1 7 11 9 6 4 4 5 3 2 5 2 5 1 1 4 5 3 4 5 6 7 8 5 1 3 9 7 7 6 5 4 2 2 2 2 4 4 2 3 5 7 9 10 11 10 8 8 17 25 26 27 27 29 31
14 11 7 6 5 6 7 7 7 6 6 7 9 12 15 9 2 2 4 2 2 2 1 2 2 4 4 1 3 6 5 3 1 1 5 9 9 4 1 5 5 3 1 4 4 6 4 6 8 6 4 5 7 7 8 8 4 4 10 13 8 8 7 3 2 2 2 0 3 5 6 3 3 3 6 9 11 12 10 7 8 16 25 27 27 28 29 31
14 11 7 6 5 5 7 7 6 5 6 8 10 13 11 3 2 4 2 0 1 2 2 2 2 2 1 2 2 3 3 3 1 2 5 6 8 5 2 3 3 3 1 2 3 6 7 6 4 4 7 8 5 3 5 10 11 10 11 10 8 6 5 2 2 2 1 2 2 6 9 4 3 3 8 9 9 11 9 6 7 13 22 27 27 28 29 31
14 10 7 6 5 6 6 6 5 5 6 8 11 12 5 1 3 5 1 2 1 2 3 3 3 0 3 2 2 2 1 3 3 2 3 1 1 1 2 1 1 2 3 4 2 5 5 2 2 6 12 8 4 3 3 12 15 9 5 5 5 3 3 2 2 2 1 3 2 3 8 6 4 4 6 7 10 13 13 9 8 12 20 27 28 28 30 32
12 10 7 6 5 6 5 4 5 5 6 8 12 9 1 1 3 1 2 3 2 3 2 2 3 0 3 2 1 2 0 2 2 2 2 1 1 1 2 3 2 2 3 2 2 5 4 4 2 3 8 10 8 5 4 6 6 4 5 6 4 2 2 2 2 2 2 3 1 2 6 5 6 5 5 8 11 15 17 14 15 17 21 27 29 29 29 32
11 8 6 6 5 6 5 4 4 4 6 9 11 6 4 4 1 2 2 2 1 3 2 2 2 1 4 2 2 2 1 1 1 1 1 1 1 2 3 3 5 3 1 3 1 4 4 4 2 2 3 9 9 7 4 2 3 5 6 6 4 2 2 1 2 2 3 3 1 3 4 3 4 4 6 11 14 19 21 22 22 22 24 28 31 31 30 31
10 6 6 6 5 5 5 4 4 3 5 9 7 2 4 3 2 2 2 3 3 3 2 1 2 3 3 1 3 2 1 2 1 2 2 2 2 2 4 3 2 4 2 1 1 1 1 4 2 2 2 6 7 7 10 8 5 5 4 5 5 4 3 3 3 2 2 1 1 4 3 3 2 3 4 7 15 22 23 23 23 23 25 27 28 30 30 31
8 5 5 5 5 5 5 4 3 2 6 9 4 4 2 1 2 1 3 4 2 3 4 2 3 4 3 2 3 0 2 1 1 3 3 2 1 2 2 2 2 3 4 2 2 1 1 4 7 4 3 8 5 4 9 9 4 2 2 3 2 4 5 2 2 4 3 1 1 2 2 3 3 3 3 1 8 15 19 20 18 17 21 24 25 27 30 32
7 5 4 4 6 6 6 4 2 2 7 6 5 3 1 3 2 2 3 2 2 3 5 5 4 4 2 3 4 3 1 0 1 2 2 1 1 3 2 2 3 4 4 3 2 0 1 4 7 4 1 6 6 5 7 7 4 2 2 3 4 4 6 4 1 1 2 1 1 2 2 3 2 3 1 3 5 9 13 17 16 14 17 21 23 26 30 33
6 5 3 6 7 6 6 4 2 4 6 5 5 0 3 3 3 4 2 2 4 3 2 3 2 1 1 1 3 3 2 1 1 2 1 2 1 2 2 3 2 4 5 4 1 2 1 4 5 3 3 1 8 12 5 2 4 4 3 5 2 2 3 4 1 2 2 1 2 2 3 3 1 2 1 4 6 8 10 13 15 15 17 20 22 25 29 33
4 2 2 6 7 7 6 4 3 4 4 5 2 2 2 2 5 6 3 4 3 1 3 1 1 1 1 1 2 4 1 1 2 2 1 1 2 2 1 1 2 3 5 5 1 0 3 2 6 3 2 1 5 10 3 4 0 4 3 3 4 2 1 1 2 1 2 1 3 2 3 3 3 3 4 7 9 10 11 11 14 16 19 22 23 24 27 31
3 2 4 3 5 7 5 5 5 4 4 4 0 2 1 3 6 6 6 4 1 1 2 2 1 1 1 2 2 2 1 1 0 2 1 1 1 3 2 1 2 3 3 6 2 1 3 1 4 5 3 1 2 3 5 5 2 4 2 1 3 3 3 1 2 2 3 2 2 1 2 2 4 3 5 10 12 11 13 12 13 18 23 24 25 24 25 28
3 3 4 3 1 5 5 4 4 2 3 1 2 2 1 3 7 13 14 6 2 1 1 2 1 1 1 0 1 1 2 2 2 2 1 1 1 3 2 2 1 5 2 5 2 1 2 3 2 6 6 1 1 1 3 5 3 2 2 2 1 1 2 1 1 1 3 2 2 0 1 4 3 2 5 9 10 11 14 13 13 20 27 27 28 27 25 27
2 3 2 2 2 2 5 3 1 1 2 1 2 2 3 4 7 16 18 8 3 4 4 3 4 2 1 1 1 0 2 2 2 1 0 1 1 1 2 1 1 4 4 4 2 1 1 2 1 4 4 1 4 4 2 2 4 5 3 3 2 1 1 1 2 2 1 3 3 2 1 4 3 2 4 6 6 9 14 16 15 21 29 30 31 30 27 26
2 2 1 1 1 2 4 2 1 2 2 1 3 4 7 7 5 9 11 6 2 4 3 2 3 1 2 2 0 1 2 1 1 1 1 1 2 3 4 7 4 2 1 3 2 2 2 3 2 2 4 4 7 6 3 0 4 6 3 2 2 2 3 4 2 2 1 1 1 1 0 3 3 4 5 4 5 9 14 16 16 20 26 29 31 32 29 26
4 2 1 2 2 4 3 0 3 2 1 4 5 6 7 6 4 4 5 3 1 1 0 1 1 1 1 2 1 2 2 2 1 1 2 2 4 4 3 9 6 1 2 2 2 2 3 3 3 3 5 4 5 5 5 5 5 5 1 1 3 4 3 4 3 2 2 2 1 1 1 3 4 6 6 3 3 7 11 13 14 15 20 25 28 30 30 28
9 2 2 3 4 6 2 1 1 1 3 5 5 5 7 6 5 5 3 2 2 1 1 1 1 1 0 1 3 2 1 2 1 2 1 3 3 1 8 13 11 5 2 1 2 1 2 1 3 4 6 6 5 5 6 6 4 1 1 0 2 4 1 2 1 2 0 3 3 3 1 4 4 6 7 7 6 6 6 8 11 11 13 20 24 25 28 29
9 2 0 2 4 5 1 1 3 2 3 3 4 6 5 4 5 5 4 2 2 2 2 0 0 2 1 2 4 3 1 3 2 1 2 3 2 3 9 12 13 9 3 2 4 4 3 2 3 3 1 2 3 3 2 3 4 2 2 3 4 4 2 3 1 1 2 3 2 4 3 3 4 7 8 7 5 6 8 9 11 10 11 16 21 23 25 28
7 1 1 2 2 4 2 2 4 1 1 1 3 4 2 3 5 5 4 2 1 1 2 2 1 2 3 4 4 4 5 4 2 2 2 3 3 2 4 7 11 12 9 8 8 6 4 2 3 5 5 2 4 6 5 3 1 2 4 5 7 4 3 4 3 2 4 1 3 0 3 1 5 8 8 7 5 4 5 9 13 12 11 13 17 19 22 25
5 1 2 3 1 0 1 4 7 4 1 1 1 2 2 4 5 4 3 2 2 2 2 3 2 2 1 2 4 3 4 5 4 3 1 3 3 4 4 4 6 8 9 7 5 5 5 2 3 6 5 3 1 6 9 6 3 2 3 6 9 9 3 4 2 3 3 3 1 3 2 3 4 6 7 7 6 5 4 6 11 13 12 13 15 16 18 20
4 1 1 2 2 1 1 2 6 4 2 2 2 1 3 5 4 2 3 1 3 2 2 3 5 2 2 3 4 2 2 4 4 3 2 2 3 4 4 4 4 5 6 4 4 4 5 2 3 5 3 1 8 12 13 11 5 4 7 9 10 11 9 8 3 3 2 3 3 3 5 5 4 5 6 6 6 6 7 7 8 11 11 12 14 15 16 17
4 3 2 2 2 4 4 6 6 3 3 2 1 1 2 4 5 4 3 1 3 3 3 2 4 5 1 3 5 3 2 3 2 3 2 1 3 2 2 2 2 4 4 3 4 3 3 1 2 4 4 4 9 9 7 11 10 7 9 11 10 10 10 11 9 6 7 8 7 8 9 7 5 5 5 6 6 7 9 10 10 10 9 9 11 13 14 15
5 4 4 5 5 5 5 6 2 1 2 1 1 3 2 3 4 4 4 1 1 2 3 5 3 0 2 3 6 4 5 7 5 1 3 1 2 0 1 2 2 2 4 2 1 1 2 0 0 5 4 4 4 3 3 8 10 10 10 11 10 10 9 9 9 7 8 10 9 9 9 6 5 5 6 8 8 9 11 12 11 9 8 9 10 12 14 15
7 5 6 5 4 3 4 4 1 2 1 1 1 3 2 3 3 4 4 2 3 3 4 9 7 3 3 4 7 5 7 9 7 4 5 4 1 2 2 2 3 1 3 1 1 1 3 2 1 5 4 2 1 2 6 7 7 9 12 13 11 9 7 6 8 7 5 5 7 7 6 4 4 5 8 10 11 12 13 12 11 9 6 6 7 9 12 15
7 4 3 2 3 3 3 3 2 2 2 2 2 2 3 6 8 5 3 3 2 3 10 14 10 4 4 4 4 4 5 6 4 2 4 3 1 2 2 1 3 3 2 2 1 1 2 3 2 3 4 2 4 4 6 6 4 5 6 6 7 8 7 7 9 9 7 3 3 4 4 3 4 6 7 9 10 12 13 13 11 9 7 6 4 5 7 10
Wind_Direction
22 21 20 19 19 19 24 29 28 26 24 23 24 30 31 28 21 12 5 357 347 339 330 320 316 314 313 309 304 298 292 288 283 277 276 276 229 221 206 198 202 194 187 186 187 186 180 175 178 177 170 173 190 210 214 219 227 222 103 128 269 211 201 235 190 167 143 146 161 187 164 137 124 111 120 124 123 122 119 125 133 130 146 154 159 162 165 172
19 19 18 17 17 16 21 26 26 22 22 22 25 31 33 34 32 28 22 14 5 354 344 336 331 328 326 319 313 308 302 295 287 280 277 278 241 222 206 196 198 197 191 190 191 189 183 176 178 179 174 177 194 207 207 202 203 191 115 97 243 220 207 272 203 154 169 153 150 173 151 137 131 126 134 131 125 124 110 114 123 122 133 145 155 161 169 172
14 15 15 15 14 14 16 20 21 18 21 23 24 30 32 33 32 31 29 24 19 7 0 353 348 344 336 328 324 320 315 307 295 291 304 286 252 223 207 198 197 195 191 190 191 191 188 180 179 179 178 183 196 202 198 189 201 198 166 267 245 238 224 266 214 181 203 156 148 149 132 128 129 136 147 141 131 131 130 138 133 131 139 148 156 164 170 172
9 9 10 11 11 11 12 14 15 12 17 20 20 25 27 28 27 25 23 20 16 11 7 1 358 354 345 338 335 328 328 327 306 107 52 358 252 214 205 198 197 191 183 181 186 188 184 179 180 180 182 193 214 216 213 196 193 177 179 224 233 214 70 274 227 185 139 148 147 134 126 124 132 141 147 140 132 151 165 162 157 151 151 155 161 167 170 174
3 1 2 4 6 8 9 8 9 7 9 14 16 18 18 20 18 16 13 9 7 4 1 358 357 354 349 346 341 335 348 12 117 101 56 34 54 201 199 196 196 189 180 176 177 179 175 177 180 179 184 201 216 222 232 200 186 159 199 218 214 182 106 255 221 172 130 145 142 130 130 138 139 137 149 150 145 190 178 173 171 165 162 163 165 168 172 177
357 354 354 355 359 2 4 3 3 1 359 2 5 7 9 10 9 8 6 3 359 356 354 352 350 349 349 348 346 342 351 73 151 89 51 33 29 171 189 195 196 190 185 180 174 174 171 172 177 175 175 208 227 219 241 203 193 206 283 167 209 251 144 201 195 171 148 145 135 136 145 142 141 134 156 164 137 140 177 177 174 170 167 166 166 169 174 178
355 347 345 346 349 354 358 358 358 355 349 348 350 352 354 358 2 1 360 0 357 354 352 349 346 345 344 345 348 338 313 303 168 282 53 34 32 102 174 191 197 194 191 189 181 176 171 167 175 174 155 153 240 230 247 209 192 208 332 133 187 268 182 181 177 166 160 154 142 143 154 142 145 145 164 179 154 135 172 177 174 168 166 168 169 172 175 179
354 344 338 336 339 344 350 354 353 351 343 334 333 335 338 345 352 353 353 353 351 352 349 346 342 340 342 343 345 337 306 104 108 108 105 77 54 57 138 184 198 203 200 200 192 182 178 172 174 171 153 223 243 237 224 192 190 212 216 142 154 174 180 178 168 159 148 157 159 144 145 144 139 136 161 184 179 162 169 175 172 164 165 170 172 175 178 180
352 344 335 329 329 333 341 348 348 348 342 326 319 321 328 336 343 346 345 342 341 342 340 340 336 335 339 338 340 342 179 131 116 124 114 99 67 51 75 186 207 211 206 205 199 188 187 185 178 174 181 233 260 272 192 169 214 209 176 125 125 116 161 162 148 148 139 146 163 146 110 141 145 118 164 187 181 168 168 172 170 166 167 172 176 179 179 182
351 344 337 326 322 322 332 341 342 344 340 327 318 317 324 329 333 335 334 333 331 331 330 330 328 328 330 331 339 347 165 151 145 146 125 114 91 52 39 256 235 224 213 208 205 196 195 192 183 189 211 261 304 276 199 178 195 167 133 91 88 63 124 146 129 143 149 137 158 152 103 137 160 132 176 185 175 167 164 167 170 169 170 175 179 182 181 182
353 346 339 330 320 317 325 334 339 340 337 332 328 325 325 324 327 327 327 328 327 328 326 324 323 320 320 319 319 241 171 153 146 159 155 144 114 20 355 319 281 251 225 214 210 203 198 193 184 192 223 307 317 271 177 159 144 140 127 91 58 32 81 141 134 149 154 131 142 132 101 97 144 161 180 170 170 170 164 164 171 172 172 178 181 183 184 183
357 349 342 335 322 316 321 329 336 336 333 333 332 329 325 322 323 322 324 328 329 330 327 325 321 318 319 312 295 204 174 170 188 195 203 204 195 347 335 321 301 277 252 229 217 208 199 192 190 192 238 336 330 97 125 136 134 134 128 96 58 17 39 142 135 155 147 114 138 120 95 207 194 257 164 163 168 170 165 164 171 173 174 180 183 186 186 184
357 352 346 337 326 320 318 326 334 333 330 330 329 328 324 322 322 324 327 330 332 334 333 330 326 325 324 313 277 167 179 191 210 217 221 213 217 231 286 323 292 256 262 244 223 213 204 192 191 200 288 328 328 132 133 123 118 118 74 79 109 58 208 140 140 169 128 115 156 139 137 210 211 254 170 163 166 163 162 163 170 174 176 181 186 189 189 188
355 351 346 338 331 323 316 325 331 329 328 327 326 325 323 323 323 327 327 328 334 338 339 335 336 337 328 324 129 169 192 207 228 238 236 225 234 257 252 283 263 212 180 189 191 201 203 202 207 225 287 300 203 126 109 49 63 97 352 48 123 186 187 145 175 184 140 141 171 162 240 196 206 251 178 164 165 160 159 163 170 175 177 182 189 191 191 191
353 348 345 339 333 325 318 323 327 330 329 326 327 324 324 325 325 328 324 325 337 342 342 338 347 345 330 14 125 188 209 230 256 261 251 241 245 273 271 232 209 135 119 140 152 141 165 193 216 244 293 277 167 128 69 350 36 49 263 311 326 196 166 195 216 208 151 145 155 136 226 185 209 223 174 166 167 163 161 165 171 175 178 183 190 193 193 195
352 346 343 339 333 327 321 322 330 337 336 332 330 327 329 330 330 332 324 325 340 341 342 341 354 353 336 57 94 152 312 311 305 278 251 242 239 251 300 248 141 119 113 117 135 140 142 164 210 248 277 190 158 125 66 9 4 0 136 184 257 176 130 170 198 268 29 121 103 67 150 153 269 189 170 169 169 166 164 167 170 175 179 184 190 195 196 197
351 345 342 338 333 328 325 331 341 350 348 340 338 337 337 335 331 329 318 319 338 338 339 344 349 347 333 101 55 27 6 355 337 274 244 238 230 226 258 257 145 130 126 120 133 145 155 169 207 249 250 121 139 117 93 348 296 307 60 83 254 186 137 143 148 248 251 101 83 67 108 237 192 169 168 170 170 168 169 171 173 174 177 184 189 195 198 198
350 347 344 339 333 329 332 344 353 2 358 350 352 348 340 336 328 319 308 310 325 334 341 352 355 353 286 48 3 354 1 6 355 277 220 201 207 217 239 268 203 153 141 131 142 146 156 173 137 119 23 101 148 148 164 216 208 194 175 172 253 157 154 146 139 191 180 84 96 122 236 258 148 157 166 171 171 172 175 176 177 177 179 183 188 195 199 200
351 350 344 339 333 327 334 349 356 6 2 360 0 353 344 344 338 320 325 317 312 335 346 321 332 328 253 301 337 349 353 351 338 237 164 142 169 211 222 247 272 181 152 127 149 160 153 121 68 110 207 190 197 194 195 199 171 165 154 142 175 154 151 147 139 183 162 108 107 161 191 172 154 160 165 168 173 176 178 179 180 181 184 187 191 197 202 206
351 350 344 340 330 322 329 342 350 1 6 8 4 2 357 354 359 346 334 326 307 316 316 306 301 283 278 294 306 320 332 334 327 240 192 176 182 191 184 200 189 135 138 132 153 172 150 138 209 207 211 204 212 217 216 148 111 118 118 111 164 154 117 113 124 174 167 126 104 105 158 166 164 165 160 162 170 176 178 182 183 185 189 192 195 199 205 210
350 350 344 338 323 312 314 326 337 350 6 11 11 19 18 4 5 330 333 333 328 327 321 316 303 285 286 287 283 306 319 321 330 271 222 201 193 180 160 173 119 67 291 162 125 104 133 174 227 216 214 212 219 229 248 308 69 96 131 140 146 194 127 89 113 150 184 126 93 43 87 167 171 165 160 155 158 176 185 187 188 190 194 197 199 201 206 211
350 350 345 336 313 295 289 309 322 339 1 11 17 26 23 12 2 330 325 313 318 329 326 316 308 291 285 273 276 295 301 302 319 228 198 188 188 189 168 140 118 169 281 98 101 55 100 231 247 231 216 218 255 268 248 254 253 91 115 126 187 226 123 87 98 97 18 26 132 125 120 149 199 165 168 155 137 166 190 196 196 195 197 200 201 203 205 207
348 348 345 333 299 277 272 292 299 328 357 8 19 20 14 7 357 339 305 280 304 323 330 320 313 297 279 268 275 273 259 256 263 199 188 188 188 185 165 137 135 183 58 100 143 136 211 245 252 216 170 162 282 294 205 215 235 185 126 125 204 198 145 107 118 114 65 100 136 140 120 63 331 308 239 231 221 238 210 209 207 202 202 205 205 205 205 204
345 345 340 328 287 263 256 271 279 314 347 0 13 9 4 359 354 340 295 267 295 313 328 331 315 297 281 280 279 261 249 245 252 211 188 191 181 168 177 155 123 162 233 165 151 154 229 245 232 130 134 159 200 300 204 199 247 243 178 186 200 182 160 99 115 124 105 120 133 128 106 293 238 198 234 242 247 274 274 229 214 211 211 210 208 206 206 207
342 340 332 320 276 259 249 256 262 297 333 350 354 353 356 351 347 338 314 302 305 306 332 339 320 307 280 270 245 245 274 262 260 237 200 197 185 159 153 153 127 224 231 168 138 167 263 254 204 129 132 163 166 259 220 189 250 301 217 204 185 157 141 116 127 127 96 182 161 149 154 227 208 205 218 224 242 267 276 241 214 212 214 213 209 204 204 206
337 335 326 305 264 250 247 255 260 289 316 329 334 342 347 343 339 332 342 51 344 308 339 344 326 317 266 255 227 221 294 294 270 239 206 202 196 171 123 144 138 220 206 162 155 212 275 252 178 165 202 197 208 259 222 164 159 297 247 198 151 128 129 134 143 138 127 198 190 183 181 171 194 219 218 214 229 248 271 256 216 210 210 211 210 204 201 201
331 330 320 295 258 239 245 259 265 286 302 309 326 333 335 334 333 326 357 40 354 309 322 281 290 293 263 264 215 178 106 305 289 221 199 195 196 182 171 224 173 212 183 115 43 249 214 304 200 182 206 199 214 254 222 153 142 266 277 141 127 121 130 143 140 109 28 93 176 217 156 111 206 219 210 205 221 242 258 263 224 209 206 208 210 205 200 199
326 325 316 291 259 235 239 249 264 286 298 305 319 324 328 329 321 339 59 63 339 312 290 259 273 276 272 271 221 207 315 316 28 241 201 189 192 181 186 215 181 196 183 116 184 263 204 164 210 199 201 202 215 235 200 150 130 272 58 83 101 106 109 130 125 82 24 61 213 210 161 156 246 218 197 197 214 232 237 243 226 206 204 206 207 204 201 199
320 319 312 286 257 235 234 241 259 281 293 306 317 319 326 328 305 65 74 90 321 310 260 267 285 264 260 287 225 242 291 312 60 126 168 172 189 184 172 217 178 171 245 134 190 255 248 219 208 168 158 212 226 227 188 152 128 126 97 78 66 66 61 54 77 80 64 122 217 193 170 195 268 204 184 196 212 222 224 227 222 206 203 204 204 203 202 198
317 315 306 277 254 233 227 234 254 279 299 310 316 320 329 339 115 66 52 294 297 278 261 267 265 231 175 52 321 267 256 280 301 136 140 158 191 190 138 193 151 133 300 5 212 248 262 246 221 171 199 212 207 212 175 147 137 123 100 78 65 55 47 30 24 78 124 259 235 174 171 194 284 214 195 198 197 207 216 211 209 205 202 203 203 202 200 198
313 312 299 271 248 224 221 231 243 277 308 312 318 327 342 100 81 76 119 260 282 296 314 281 266 153 117 118 304 314 8 306 327 108 139 115 187 179 112 143 66 73 4 353 281 283 302 252 224 228 217 188 102 51 119 138 138 123 101 102 86 27 12 32 3 36 174 258 291 163 164 176 235 232 209 200 183 193 206 202 191 195 199 202 203 202 201 200
311 307 290 266 242 213 209 223 236 279 305 313 324 332 53 91 20 81 255 310 313 285 306 273 272 199 117 106 282 269 3 315 339 66 145 116 7 242 164 185 175 47 343 298 280 329 310 226 250 270 203 158 110 64 78 120 131 107 111 121 98 21 10 10 326 334 235 240 298 153 163 181 234 243 208 200 197 198 200 197 192 191 195 200 202 203 202 201
307 300 282 260 234 207 202 220 253 290 307 318 327 335 91 75 11 222 268 322 253 253 279 288 303 98 121 89 292 237 155 302 311 48 116 116 353 284 263 222 165 128 278 225 276 349 325 297 333 36 178 165 139 115 124 166 176 151 143 140 134 114 97 253 268 302 272 265 63 133 167 211 264 258 206 196 202 203 199 196 194 193 196 200 202 203 203 203
306 297 278 253 218 201 197 217 255 285 321 329 335 31 84 58 239 230 273 262 256 282 308 323 348 36 89 154 254 223 117 310 312 54 21 48 47 316 304 299 154 127 123 156 293 150 29 322 275 170 173 175 165 158 165 166 162 174 168 142 144 150 158 191 205 209 239 283 88 127 166 205 209 259 250 210 202 199 197 197 195 194 198 200 200 201 202 203
308 294 277 241 195 190 186 201 239 297 337 338 12 84 92 251 245 254 252 249 282 304 305 334 84 59 18 287 281 277 134 269 11 56 20 55 129 224 271 290 190 135 114 138 265 174 135 268 248 245 189 173 185 185 155 135 131 198 123 113 163 176 153 126 172 184 159 123 169 169 220 231 201 246 286 238 194 189 188 196 198 193 192 193 196 199 201 203
309 299 273 210 183 188 187 198 222 340 344 357 47 66 183 221 218 195 212 241 316 304 321 352 63 74 344 306 320 348 63 348 83 71 351 338 211 223 237 257 202 152 138 155 220 227 29 278 264 301 269 180 157 141 144 134 140 158 133 173 218 174 130 109 148 207 102 117 238 201 254 294 303 283 266 125 162 175 180 194 201 196 188 188 192 197 201 202
310 303 256 182 175 189 201 218 247 315 339 39 80 211 226 219 207 191 210 303 295 288 55 34 28 91 268 302 311 310 5 24 46 73 1 322 281 234 270 279 204 178 188 179 224 228 171 289 289 2 8 216 127 125 144 188 139 125 184 203 192 56 86 107 111 8 57 219 262 217 248 284 305 289 223 149 170 183 186 190 195 197 193 192 194 198 201 202
325 306 178 168 180 197 209 232 265 297 341 59 83 253 209 216 217 208 256 304 293 338 91 116 285 120 165 159 276 281 347 32 340 41 71 335 298 219 237 272 221 218 202 173 124 193 112 322 299 353 47 259 104 112 141 281 130 113 176 190 114 79 299 88 125 153 129 232 278 257 262 253 209 216 196 184 188 189 189 188 189 193 193 194 196 197 201 201
5 113 118 137 193 206 212 236 262 303 14 60 267 262 209 246 250 254 282 295 266 79 98 205 236 62 135 158 207 268 15 130 136 59 109 29 321 232 195 179 266 291 165 144 139 242 101 66 289 320 354 331 29 104 171 235 293 66 89 155 111 148 200 184 156 160 151 208 261 288 302 262 235 230 196 196 197 187 185 188 192 193 192 193 194 193 196 199
23 117 100 70 153 210 219 242 269 338 37 86 220 246 292 280 290 301 309 307 228 186 184 202 160 69 274 178 187 223 59 107 139 107 173 161 315 271 242 132 326 325 13 106 113 238 79 64 296 317 341 355 247 218 180 199 200 102 105 198 222 183 175 193 210 152 131 159 201 201 287 279 275 262 219 209 200 187 186 189 193 194 192 192 192 191 192 197
70 105 98 51 42 218 216 234 305 69 83 268 221 230 292 295 297 307 315 316 235 227 231 180 148 166 188 74 23 146 91 77 110 110 193 168 150 280 303 324 272 314 358 54 37 342 85 78 17 332 338 262 241 268 293 212 164 130 130 180 219 274 135 173 284 301 107 136 174 170 224 279 293 299 265 237 207 195 193 190 192 195 194 193 193 191 190 193
96 85 355 348 32 186 189 188 357 87 115 253 252 250 281 290 282 296 311 318 251 233 238 157 132 151 160 152 78 100 120 99 68 96 155 186 194 206 304 331 320 263 88 84 324 334 104 109 69 332 279 251 262 285 314 146 120 109 109 150 175 174 155 167 220 264 262 148 168 135 146 273 300 329 307 264 200 197 199 195 193 195 196 195 193 193 192 191
2 31 54 30 126 154 153 248 349 20 217 259 275 267 268 271 262 279 297 307 289 261 334 91 135 120 131 196 155 104 113 113 91 245 204 217 228 218 317 360 20 97 104 87 290 348 65 70 54 340 300 304 307 325 6 32 68 94 103 124 174 217 205 183 186 177 192 206 161 102 291 273 321 346 343 5 126 165 187 197 197 192 194 196 193 193 194 193
341 325 79 57 133 151 136 207 246 315 283 288 302 289 273 248 230 251 266 263 257 236 81 59 192 146 81 47 88 100 151 120 131 293 257 215 228 338 357 15 45 59 24 107 201 72 66 71 70 36 341 346 352 2 17 2 4 94 202 3 248 266 266 172 193 75 171 230 159 127 237 271 315 348 4 31 67 96 123 169 185 180 181 190 191 192 195 196
343 298 153 61 153 179 209 155 147 186 275 308 309 303 307 277 254 259 253 249 234 181 129 41 216 95 57 42 53 34 35 101 126 335 350 284 269 21 3 18 56 70 43 113 123 91 90 120 86 81 15 337 319 318 343 302 302 325 331 352 341 299 221 174 190 88 208 254 92 117 198 254 323 354 10 23 55 82 91 121 153 165 170 180 185 189 194 197
360 332 318 17 158 193 209 104 73 68 230 358 316 303 317 284 295 295 255 257 357 110 89 60 97 67 44 48 53 21 5 30 73 72 22 306 300 321 338 19 67 89 94 90 87 82 83 79 88 118 148 195 253 264 279 291 319 334 323 348 3 336 219 161 121 157 192 166 56 128 194 124 359 1 9 9 26 68 93 115 134 151 162 169 175 180 186 193
8 26 339 355 343 266 113 68 43 35 192 140 296 294 293 278 310 324 254 241 65 97 73 38 48 94 121 93 85 49 359 8 32 48 349 270 282 303 321 12 57 96 106 82 64 89 87 59 106 123 149 206 342 345 337 352 44 25 0 19 19 11 35 112 130 240 204 134 171 258 163 101 31 15 19 14 24 38 55 101 126 136 142 151 161 168 176 185
351 341 352 0 310 220 137 2 4 2 255 230 206 252 300 290 299 298 253 275 47 72 87 32 359 3 191 160 113 92 14 20 13 354 315 296 326 344 357 20 51 105 117 53 25 90 101 119 167 123 113 75 53 32 360 352 358 17 43 47 36 31 45 64 60 263 199 138 182 179 115 94 55 31 22 21 35 49 58 88 127 137 136 145 153 159 168 178
350 327 337 359 285 240 250 289 318 332 271 263 244 226 245 284 291 274 259 1 16 2 71 107 316 337 15 129 109 111 143 106 27 310 278 338 357 13 21 15 62 99 106 59 29 70 96 129 177 112 76 40 64 62 2 348 343 350 37 50 44 46 52 55 62 77 91 99 116 113 96 76 50 33 21 27 44 63 76 91 112 131 143 156 164 169 176 183
350 319 322 338 302 277 287 292 313 16 314 331 289 260 236 256 290 299 299 13 112 330 57 123 178 57 73 102 102 120 183 160 139 206 198 152 7 350 184 217 218 22 34 52 32 55 98 142 230 95 79 1 34 73 331 335 327 331 15 39 39 44 48 43 50 67 81 93 106 101 87 68 48 44 45 46 53 63 67 72 82 104 137 160 173 183 190 197
346 321 326 343 312 298 316 309 40 101 313 323 213 280 285 247 286 327 306 270 161 186 158 149 164 144 67 71 95 135 198 178 160 182 184 163 192 232 229 210 186 80 25 48 343 12 106 140 14 78 89 282 320 358 305 301 291 313 359 21 23 33 50 50 45 45 50 88 106 94 79 62 47 57 61 55 55 59 54 53 62 79 112 148 171 184 193 203
353 339 331 349 306 307 332 327 4 119 238 246 212 258 277 272 294 321 285 283 350 159 163 156 152 119 64 75 112 162 196 184 183 203 178 181 252 233 240 242 162 156 160 135 77 9 121 149 171 98 100 196 182 186 262 284 271 279 327 2 13 25 44 55 51 42 29 33 85 77 67 66 63 67 68 60 57 58 54 50 53 62 81 104 136 178 199 212